Вернуться в каталог

STARLINK-32740

АктивенСвязьVLEO
NORAD 62754·PAYLOAD·🇺🇸 United States

Запущен Jan 21, 2025 с Cape Canaveral Space Force Station

Loading…

Ближайшие Пролёты (ближайшие 24 часа)

TLE

СвежийSource: CelesTrak SupGP

Эпоха: Sep 15, 2026, 02:01 UTC

1 62754C 25014V   26258.08451389 -.00034604  00000+0 -12534-2 0  2580
2 62754  43.0020 164.4011 0001081 276.0222 220.7362 15.27596026    19

Отслеживайте STARLINK-32740 в реальном времени с AllMySat

Download on the App Store